Location: Dunedin
(45.8670°S, 170.5000°E)
Time: 22:28:30
(UTC+13:00)

Cosmos 2208 Rocket - Pass Details

Date: 24 January 2019
Orbit: 754 x 806 km, 74.0° (Epoch: 21 February)

Event Time Altitude Azimuth Distance (km) Brightness Sun altitude
Rises 21:54:54 0° 202° (SSW) 3,249 8.4 -6.0°
Reaches altitude 10° 21:57:17 10° 202° (SSW) 2,319 7.5 -6.3°
Maximum altitude 22:02:34 89° 292° (WNW) 777 4.1 -7.1°
Drops below altitude 10° 22:07:49 10° 19° (NNE) 2,312 6.0 -7.8°
Enters shadow 22:09:01 - 19° (NNE) 2,773 6.4 -7.9°
